| time (UTC) | temp C | wind direction | speed KPH | gust KPH | rain 1hr cm | rain 24hr cm | rain mn cm | humidity % | barometer mb |
| 20260510171030 | 13 | 38 | 4.8 | 4.8 | 0.00 | 0.00 | 0.00 | 58 | 1014.6 |
| 20260510170524 | 13 | 20 | 4.8 | 14.5 | 0.00 | 0.00 | 0.00 | 58 | 1014.8 |
| 20260510170345 | 13 | 66 | 12.9 | 14.5 | 0.00 | 0.00 | 0.00 | 58 | 1014.8 |
| 20260510165642 | 13 | 58 | 8.0 | 14.5 | 0.00 | 0.00 | 0.00 | 58 | 1014.9 |
| 20260510165618 | 13 | 58 | 8.0 | 14.5 | 0.00 | 0.00 | 0.00 | 58 | 1014.8 |
| 20260510164522 | 13 | 51 | 14.5 | 24.1 | 0.00 | 0.00 | 0.00 | 58 | 1015.0 |
| 20260510164032 | 13 | 51 | 14.5 | 24.1 | 0.00 | 0.00 | 0.00 | 58 | 1014.9 |
| 20260510163521 | 13 | 56 | 11.3 | 16.1 | 0.00 | 0.00 | 0.00 | 59 | 1015.1 |
| 20260510163039 | 13 | 51 | 9.7 | 16.1 | 0.00 | 0.00 | 0.00 | 53 | 1015.0 |
| 20260510162808 | 13 | 65 | 4.8 | 17.7 | 0.00 | 0.00 | 0.00 | 53 | 1015.0 |
| 20260510162030 | 14 | 13 | 8.0 | 17.7 | 0.00 | 0.00 | 0.00 | 53 | 1015.2 |
| 20260510161518 | 14 | 32 | 12.9 | 20.9 | 0.00 | 0.00 | 0.00 | 53 | 1015.2 |
| 20260510161029 | -17 | 58 | 12.9 | 20.9 | 0.00 | 0.00 | 0.00 | 1015.3 | |
| 20260510160807 | -17 | 32 | 9.7 | 9.7 | 0.00 | 0.00 | 0.00 | 1015.4 | |
| 20260510160048 | -17 | 41 | 8.0 | 20.9 | 0.00 | 0.00 | 0.00 | 1015.4 | |
| 20260510155512 | -17 | 86 | 16.1 | 20.9 | 0.00 | 0.00 | 0.00 | 1015.4 | |
| 20260510155012 | 13 | 99 | 16.1 | 16.1 | 0.00 | 0.00 | 0.00 | 61 | 1015.5 |
| 20260510154515 | 13 | 56 | 9.7 | 11.3 | 0.00 | 0.00 | 0.00 | 61 | 1015.6 |
| 20260510154133 | -17 | 73 | 16.1 | 17.7 | 0.00 | 0.00 | 0.00 | 1015.7 | |
| 20260510154106 | -17 | 73 | 16.1 | 16.1 | 0.00 | 0.00 | 0.00 | 1015.7 | |
| 20260510153037 | 13 | 78 | 6.4 | 20.9 | 0.00 | 0.00 | 0.00 | 65 | 1015.8 |
| 20260510152503 | 13 | 48 | 19.3 | 20.9 | 0.00 | 0.00 | 0.00 | 65 | 1015.8 |
| 20260510152323 | 13 | 66 | 11.3 | 14.5 | 0.00 | 0.00 | 0.00 | 65 | 1015.9 |
| 20260510151456 | 13 | 66 | 11.3 | 14.5 | 0.00 | 0.00 | 0.00 | 65 | 1015.9 |
| 20260510150952 | 13 | 48 | 4.8 | 11.3 | 0.00 | 0.00 | 0.00 | 65 | 1016.0 |
| 20260510150450 | 12 | 48 | 8.0 | 11.3 | 0.00 | 0.00 | 0.00 | 64 | 1016.1 |
| 20260510145950 | 12 | 51 | 16.1 | 16.1 | 0.00 | 0.00 | 0.00 | 64 | 1016.1 |
| 20260510145452 | 13 | 51 | 16.1 | 16.1 | 0.00 | 0.00 | 0.00 | 64 | 1016.1 |
| 20260510144946 | 12 | 80 | 9.7 | 14.5 | 0.00 | 0.00 | 0.00 | 64 | 1016.1 |
| 20260510144449 | 12 | 56 | 9.7 | 16.1 | 0.00 | 0.00 | 0.00 | 64 | 1016.1 |
| 20260510143940 | -17 | 56 | 9.7 | 16.1 | 0.00 | 0.00 | 0.00 | 1016.2 | |
| 20260510143435 | 12 | 49 | 9.7 | 14.5 | 0.00 | 0.00 | 0.00 | 68 | 1016.3 |
| 20260510142935 | 12 | 52 | 11.3 | 14.5 | 0.00 | 0.00 | 0.00 | 68 | 1016.4 |
| 20260510142432 | -17 | 58 | 9.7 | 16.1 | 0.00 | 0.00 | 0.00 | 1016.4 | |
| 20260510142107 | 12 | 51 | 9.7 | 24.1 | 0.00 | 0.00 | 0.00 | 68 | 1016.6 |
| 20260510142019 | 12 | 71 | 16.1 | 16.1 | 0.00 | 0.00 | 0.00 | 68 | 1016.4 |
| 20260510140932 | 12 | 73 | 14.5 | 24.1 | 0.00 | 0.00 | 0.00 | 68 | 1016.6 |
| 20260510140430 | 12 | 63 | 16.1 | 22.5 | 0.00 | 0.00 | 0.00 | 68 | 1016.5 |
| 20260510140327 | -17 | 42 | 9.7 | 16.1 | 0.00 | 0.00 | 0.00 | 1016.6 | |
| 20260510135424 | 11 | 72 | 11.3 | 19.3 | 0.00 | 0.00 | 0.00 | 69 | 1016.7 |
| 20260510135053 | 11 | 20 | 16.1 | 25.7 | 0.00 | 0.00 | 0.00 | 69 | 1016.7 |
| 20260510134958 | 11 | 48 | 16.1 | 25.7 | 0.00 | 0.00 | 0.00 | 69 | 1016.6 |
| 20260510133902 | 12 | 0 | 16.1 | 24.1 | 0.00 | 0.00 | 0.00 | 68 | 1016.8 |
| 20260510133403 | 12 | 47 | 12.9 | 20.9 | 0.00 | 0.00 | 0.00 | 68 | 1016.8 |
| 20260510133232 | 12 | 69 | 20.9 | 20.9 | 0.00 | 0.00 | 0.00 | 68 | 1016.8 |
| 20260510132358 | 12 | 47 | 9.7 | 11.3 | 0.00 | 0.00 | 0.00 | 68 | 1016.8 |
| 20260510132046 | 12 | 42 | 9.7 | 17.7 | 0.00 | 0.00 | 0.00 | 69 | 1016.8 |
| 20260510131950 | -17 | 42 | 9.7 | 14.5 | 0.00 | 0.00 | 0.00 | 1016.9 | |
| 20260510130855 | 12 | 65 | 17.7 | 17.7 | 0.00 | 0.00 | 0.00 | 69 | 1016.9 |
| 20260510130357 | 12 | 65 | 9.7 | 17.7 | 0.00 | 0.00 | 0.00 | 71 | 1016.9 |
| 20260510125851 | 12 | 66 | 12.9 | 17.7 | 0.00 | 0.00 | 0.00 | 71 | 1017.0 |
| 20260510125350 | 12 | 24 | 16.1 | 17.7 | 0.00 | 0.00 | 0.00 | 70 | 1016.9 |
| 20260510124849 | 12 | 44 | 12.9 | 19.3 | 0.00 | 0.00 | 0.00 | 71 | 1017.1 |
| 20260510124352 | 12 | 66 | 8.0 | 19.3 | 0.00 | 0.00 | 0.00 | 71 | 1017.2 |
| 20260510123853 | 12 | 51 | 12.9 | 14.5 | 0.00 | 0.00 | 0.00 | 71 | 1017.2 |
| 20260510123351 | 12 | 59 | 9.7 | 9.7 | 0.00 | 0.00 | 0.00 | 71 | 1017.1 |
| 20260510123217 | 12 | 63 | 9.7 | 11.3 | 0.00 | 0.00 | 0.00 | 72 | 1017.1 |
| 20260510122348 | 11 | 63 | 9.7 | 16.1 | 0.00 | 0.00 | 0.00 | 72 | 1017.2 |
| 20260510121848 | 11 | 58 | 14.5 | 20.9 | 0.00 | 0.00 | 0.00 | 72 | 1017.2 |
| 20260510121344 | 11 | 61 | 14.5 | 29.0 | 0.00 | 0.00 | 0.00 | 72 | 1017.3 |
| 20260510120844 | 12 | 62 | 17.7 | 29.0 | 0.00 | 0.00 | 0.00 | 71 | 1017.4 |
| 20260510120344 | 12 | 49 | 17.7 | 29.0 | 0.00 | 0.00 | 0.00 | 71 | 1017.5 |
| 20260510115845 | 12 | 49 | 19.3 | 20.9 | 0.00 | 0.00 | 0.00 | 72 | 1017.4 |
| 20260510115344 | 12 | 44 | 9.7 | 9.7 | 0.00 | 0.00 | 0.00 | 72 | 1017.5 |
| 20260510114842 | 12 | 63 | 8.0 | 19.3 | 0.00 | 0.00 | 0.00 | 72 | 1017.6 |
| 20260510114347 | 12 | 63 | 12.9 | 19.3 | 0.00 | 0.00 | 0.00 | 72 | 1017.6 |
| 20260510114201 | 12 | 49 | 6.4 | 17.7 | 0.00 | 0.00 | 0.00 | 72 | 1017.7 |
| 20260510113345 | 12 | 42 | 14.5 | 17.7 | 0.00 | 0.00 | 0.00 | 72 | 1017.7 |
| 20260510112845 | 12 | 24 | 17.7 | 24.1 | 0.00 | 0.00 | 0.00 | 75 | 1017.7 |
| 20260510112347 | 12 | 24 | 17.7 | 24.1 | 0.00 | 0.00 | 0.00 | 75 | 1017.7 |
| 20260510111845 | 12 | 44 | 16.1 | 16.1 | 0.00 | 0.00 | 0.00 | 75 | 1017.8 |
| 20260510111343 | 12 | 0.0 | 0.0 | 0.00 | 0.00 | 0.00 | 77 | 1017.8 | |
| 20260510110844 | 12 | 62 | 14.5 | 14.5 | 0.00 | 0.00 | 0.00 | 77 | 1017.8 |
| 20260510110343 | 12 | 62 | 14.5 | 14.5 | 0.00 | 0.00 | 0.00 | 77 | 1017.9 |
| 20260510105843 | 12 | 54 | 9.7 | 20.9 | 0.00 | 0.00 | 0.00 | 77 | 1018.0 |
| 20260510105342 | -17 | 51 | 20.9 | 20.9 | 0.00 | 0.00 | 0.00 | 1018.0 | |
| 20260510104842 | 11 | 37 | 8.0 | 19.3 | 0.00 | 0.00 | 0.00 | 78 | 1018.1 |
| 20260510104343 | 11 | 55 | 11.3 | 27.4 | 0.00 | 0.00 | 0.00 | 78 | 1018.0 |
| 20260510103841 | 11 | 44 | 14.5 | 27.4 | 0.00 | 1.91 | 0.00 | 78 | 1018.1 |
| 20260510103339 | 11 | 71 | 16.1 | 24.1 | 0.00 | 2.57 | 0.00 | 79 | 1018.0 |
| 20260510102838 | 11 | 52 | 14.5 | 25.7 | 0.00 | 2.57 | 0.00 | 79 | 1018.1 |
| 20260510102340 | 11 | 52 | 11.3 | 25.7 | 0.00 | 2.57 | 0.00 | 79 | 1018.2 |
| 20260510101835 | 11 | 24 | 17.7 | 29.0 | 0.00 | 2.57 | 0.00 | 79 | 1018.1 |
| 20260510101333 | 11 | 68 | 14.5 | 29.0 | 0.00 | 2.57 | 0.00 | 79 | 1018.1 |
| 20260510100833 | 11 | 55 | 12.9 | 29.0 | 0.00 | 2.57 | 0.00 | 79 | 1018.1 |
| 20260510100334 | 11 | 55 | 17.7 | 29.0 | 0.00 | 2.57 | 0.00 | 79 | 1018.2 |
| 20260510095930 | 11 | 58 | 12.9 | 27.4 | 0.00 | 2.57 | 0.00 | 80 | 1018.1 |
| 20260510095915 | 11 | 21 | 11.3 | 30.6 | 0.00 | 2.57 | 0.00 | 80 | 1018.0 |
| 20260510094834 | 11 | 62 | 11.3 | 29.0 | 0.00 | 2.57 | 0.00 | 80 | 1018.1 |
| 20260510094338 | 11 | 47 | 12.9 | 29.0 | 0.00 | 2.57 | 0.00 | 80 | 1018.1 |
| 20260510093835 | 11 | 48 | 14.5 | 29.0 | 0.00 | 2.57 | 0.00 | 80 | 1018.2 |
| 20260510093335 | 11 | 20 | 9.7 | 20.9 | 0.00 | 2.57 | 0.00 | 80 | 1018.2 |
| 20260510092834 | 11 | 48 | 9.7 | 25.7 | 0.00 | 2.57 | 0.00 | 80 | 1018.2 |
| 20260510092330 | 11 | 45 | 16.1 | 25.7 | 0.00 | 2.57 | 0.00 | 79 | 1018.2 |
| 20260510091832 | 11 | 48 | 9.7 | 22.5 | 0.00 | 2.57 | 0.00 | 82 | 1018.2 |
| 20260510091334 | 11 | 75 | 8.0 | 20.9 | 0.00 | 2.57 | 0.00 | 83 | 1018.2 |
| 20260510090831 | 11 | 62 | 9.7 | 22.5 | 0.00 | 2.57 | 0.00 | 83 | 1018.3 |
| 20260510090329 | 10 | 0 | 12.9 | 29.0 | 0.00 | 2.57 | 0.00 | 83 | 1018.4 |
| 20260510085830 | 10 | 54 | 11.3 | 29.0 | 0.00 | 2.57 | 0.00 | 84 | 1018.4 |
| 20260510085328 | 10 | 61 | 9.7 | 27.4 | 0.00 | 2.57 | 0.00 | 83 | 1018.4 |
| 20260510084826 | 10 | 83 | 14.5 | 25.7 | 0.00 | 2.57 | 0.00 | 84 | 1018.5 |
| 20260510084327 | 10 | 0 | 9.7 | 20.9 | 0.00 | 2.57 | 0.00 | 84 | 1018.5 |
| 20260510083827 | 10 | 17 | 8.0 | 19.3 | 0.00 | 2.57 | 0.00 | 84 | 1018.5 |
| 20260510083326 | 10 | 56 | 11.3 | 30.6 | 0.00 | 2.57 | 0.00 | 85 | 1018.4 |
| 20260510083206 | 10 | 42 | 14.5 | 30.6 | 0.00 | 2.57 | 0.00 | 85 | 1018.5 |
| 20260510082326 | 10 | 72 | 11.3 | 24.1 | 0.00 | 2.57 | 0.00 | 85 | 1018.5 |
| 20260510081827 | 10 | 68 | 9.7 | 27.4 | 0.00 | 2.57 | 0.00 | 85 | 1018.5 |
| 20260510081327 | 10 | 42 | 11.3 | 27.4 | 0.00 | 2.57 | 0.00 | 85 | 1018.5 |
| 20260510080827 | 10 | 48 | 12.9 | 27.4 | 0.00 | 2.57 | 0.00 | 85 | 1018.6 |
| 20260510080634 | 10 | 78 | 8.0 | 19.3 | 0.00 | 2.57 | 0.00 | 85 | 1018.6 |
| 20260510075826 | 10 | 42 | 11.3 | 22.5 | 0.00 | 2.57 | 0.00 | 85 | 1018.6 |
| 20260510075628 | 10 | 55 | 9.7 | 25.7 | 0.00 | 2.57 | 0.00 | 85 | 1018.6 |
| 20260510074824 | 10 | 34 | 12.9 | 29.0 | 0.00 | 2.57 | 0.00 | 85 | 1018.6 |
| 20260510074323 | 10 | 47 | 8.0 | 29.0 | 0.00 | 2.57 | 0.00 | 85 | 1018.5 |
| 20260510073824 | 9 | 61 | 14.5 | 22.5 | 0.00 | 2.57 | 0.00 | 85 | 1018.6 |
| 20260510073325 | 9 | 0 | 8.0 | 27.4 | 0.00 | 2.57 | 0.00 | 85 | 1018.6 |
| 20260510073208 | 9 | 47 | 12.9 | 27.4 | 0.00 | 2.57 | 0.00 | 86 | 1018.6 |
| 20260510072325 | 9 | 35 | 12.9 | 29.0 | 0.00 | 2.57 | 0.00 | 86 | 1018.6 |
| 20260510071823 | 9 | 73 | 11.3 | 29.0 | 0.00 | 2.57 | 0.00 | 86 | 1018.6 |
| 20260510071323 | 9 | 13 | 14.5 | 25.7 | 0.00 | 2.57 | 0.00 | 86 | 1018.5 |
| 20260510070824 | 9 | 38 | 14.5 | 25.7 | 0.00 | 2.57 | 0.00 | 87 | 1018.5 |
| 20260510070323 | 9 | 30 | 12.9 | 24.1 | 0.00 | 2.57 | 0.00 | 87 | 1018.6 |
| 20260510065823 | 9 | 7 | 12.9 | 24.1 | 0.00 | 2.57 | 0.00 | 88 | 1018.3 |
| 20260510065324 | 9 | 44 | 9.7 | 24.1 | 0.00 | 2.57 | 0.00 | 88 | 1018.3 |
| 20260510065154 | 9 | 71 | 12.9 | 24.1 | 0.00 | 2.57 | 0.00 | 88 | 1018.3 |
| 20260510064448 | 9 | 45 | 6.4 | 24.1 | 0.00 | 2.57 | 0.00 | 89 | 1018.3 |
| 20260510064422 | 9 | 45 | 12.9 | 24.1 | 0.00 | 2.57 | 0.00 | 88 | 1018.4 |
| 20260510063322 | 8 | 47 | 9.7 | 20.9 | 0.00 | 2.57 | 0.00 | 89 | 1018.3 |
| 20260510062822 | 8 | 39 | 12.9 | 22.5 | 0.00 | 2.57 | 0.00 | 89 | 1018.3 |
| 20260510062628 | 8 | 49 | 11.3 | 29.0 | 0.00 | 2.57 | 0.00 | 89 | 1018.2 |
| 20260510062147 | 8 | 34 | 11.3 | 29.0 | 0.00 | 2.57 | 0.00 | 89 | 1018.1 |
| 20260510061621 | 8 | 79 | 11.3 | 24.1 | 0.00 | 2.57 | 0.00 | 89 | 1018.2 |
| 20260510060810 | 8 | 42 | 12.9 | 24.1 | 0.00 | 2.57 | 0.00 | 89 | 1018.1 |
| 20260510060614 | 8 | 58 | 11.3 | 27.4 | 0.00 | 2.57 | 0.00 | 89 | 1018.1 |
| 20260510055810 | 8 | 59 | 9.7 | 27.4 | 0.00 | 2.57 | 0.00 | 89 | 1018.1 |
| 20260510055309 | 8 | 54 | 11.3 | 25.7 | 0.00 | 2.57 | 0.00 | 90 | 1018.2 |
| 20260510054806 | 8 | 37 | 11.3 | 29.0 | 0.00 | 2.57 | 0.00 | 90 | 1018.2 |
| 20260510054306 | 8 | 61 | 12.9 | 29.0 | 0.00 | 2.57 | 0.00 | 90 | 1018.1 |
| 20260510053806 | 8 | 59 | 9.7 | 24.1 | 0.00 | 2.57 | 0.00 | 90 | 1018.2 |
| 20260510053305 | 8 | 24 | 9.7 | 24.1 | 0.00 | 2.57 | 0.00 | 90 | 1018.1 |
| 20260510052806 | 8 | 54 | 11.3 | 24.1 | 0.00 | 2.57 | 0.00 | 90 | 1018.1 |
| 20260510052608 | 8 | 65 | 12.9 | 22.5 | 0.00 | 2.57 | 0.00 | 90 | 1018.0 |
| 20260510051804 | 8 | 41 | 12.9 | 20.9 | 0.00 | 2.57 | 0.00 | 90 | 1018.2 |
| 20260510051307 | 8 | 65 | 9.7 | 17.7 | 0.00 | 2.57 | 0.00 | 90 | 1018.3 |
| 20260510051135 | 8 | 78 | 8.0 | 20.9 | 0.00 | 2.57 | 0.00 | 90 | 1018.2 |
| 20260510050610 | 8 | 49 | 9.7 | 20.9 | 0.00 | 2.57 | 0.00 | 90 | 1018.3 |
| 20260510045803 | 8 | 47 | 8.0 | 19.3 | 0.00 | 2.57 | 0.00 | 90 | 1018.4 |
| 20260510045306 | 8 | 48 | 9.7 | 20.9 | 0.00 | 2.57 | 0.00 | 90 | 1018.3 |
| 20260510045131 | 8 | 38 | 11.3 | 20.9 | 0.00 | 2.57 | 0.00 | 90 | 1018.2 |
| 20260510044304 | 8 | 45 | 8.0 | 22.5 | 0.00 | 2.57 | 0.00 | 90 | 1018.3 |
| 20260510043802 | 8 | 47 | 9.7 | 22.5 | 0.00 | 2.57 | 0.00 | 90 | 1018.2 |
| 20260510043302 | 8 | 82 | 6.4 | 16.1 | 0.00 | 2.57 | 0.00 | 89 | 1018.3 |
| 20260510042802 | 8 | 51 | 6.4 | 17.7 | 0.00 | 2.57 | 0.00 | 90 | 1018.3 |
| 20260510042306 | 8 | 49 | 6.4 | 17.7 | 0.00 | 2.57 | 0.00 | 90 | 1018.3 |
| 20260510041804 | 8 | 51 | 8.0 | 16.1 | 0.00 | 2.57 | 0.00 | 90 | 1018.3 |
| 20260510041301 | 8 | 34 | 6.4 | 20.9 | 0.00 | 2.57 | 0.00 | 89 | 1018.3 |
| 20260510040801 | 8 | 32 | 8.0 | 20.9 | 0.00 | 2.57 | 0.00 | 89 | 1018.2 |
| 20260510040605 | 8 | 62 | 9.7 | 19.3 | 0.00 | 2.57 | 0.00 | 89 | 1018.3 |
| 20260510040146 | 8 | 44 | 8.0 | 20.9 | 0.00 | 2.57 | 0.00 | 89 | 1018.3 |
| 20260510035306 | 8 | 42 | 9.7 | 20.9 | 0.00 | 2.57 | 0.00 | 89 | 1018.2 |
| 20260510034801 | 8 | 42 | 8.0 | 19.3 | 0.00 | 2.57 | 0.00 | 89 | 1018.4 |
| 20260510034304 | 8 | 54 | 8.0 | 22.5 | 0.00 | 2.57 | 0.00 | 90 | 1018.3 |
| 20260510033801 | 8 | 357 | 8.0 | 22.5 | 0.00 | 2.57 | 0.00 | 90 | 1018.4 |
| 20260510033301 | 8 | 38 | 9.7 | 22.5 | 0.00 | 2.57 | 0.00 | 90 | 1018.4 |
| 20260510032802 | 8 | 44 | 12.9 | 22.5 | 0.00 | 2.57 | 0.00 | 90 | 1018.4 |
| 20260510032306 | 8 | 21 | 9.7 | 24.1 | 0.00 | 2.57 | 0.00 | 90 | 1018.4 |
| 20260510031800 | 8 | 65 | 14.5 | 24.1 | 0.00 | 2.57 | 0.00 | 90 | 1018.5 |
| 20260510031303 | 8 | 51 | 12.9 | 24.1 | 0.00 | 2.57 | 0.00 | 90 | 1018.6 |
| 20260510030802 | 8 | 38 | 9.7 | 24.1 | 0.00 | 2.57 | 0.00 | 90 | 1018.7 |
| 20260510030601 | 8 | 20 | 9.7 | 20.9 | 0.00 | 2.57 | 0.00 | 90 | 1018.8 |
| 20260510025800 | 8 | 32 | 8.0 | 24.1 | 0.00 | 2.57 | 0.00 | 90 | 1018.7 |
| 20260510025306 | 8 | 72 | 8.0 | 24.1 | 0.00 | 2.57 | 0.00 | 89 | 1018.6 |
| 20260510025140 | 8 | 65 | 8.0 | 25.7 | 0.00 | 2.57 | 0.00 | 90 | 1018.6 |
| 20260510024811 | 8 | 78 | 8.0 | 25.7 | 0.00 | 2.57 | 0.00 | 89 | 1018.6 |
| 20260510023801 | 8 | 52 | 11.3 | 22.5 | 0.00 | 2.57 | 0.00 | 89 | 1018.6 |
| 20260510023301 | 8 | 35 | 9.7 | 17.7 | 0.00 | 2.57 | 0.00 | 89 | 1018.7 |
| 20260510022800 | 8 | 27 | 9.7 | 20.9 | 0.00 | 2.57 | 0.00 | 89 | 1018.8 |
| 20260510022300 | 8 | 55 | 11.3 | 20.9 | 0.00 | 2.57 | 0.00 | 89 | 1018.7 |
| 20260510021801 | 8 | 55 | 9.7 | 20.9 | 0.00 | 2.57 | 0.00 | 89 | 1018.8 |
| 20260510021350 | 8 | 45 | 8.0 | 24.1 | 0.00 | 2.57 | 0.00 | 89 | 1018.8 |
| 20260510021326 | 8 | 54 | 11.3 | 24.1 | 0.00 | 2.57 | 0.00 | 89 | 1018.8 |
| 20260510020301 | 8 | 23 | 9.7 | 19.3 | 0.00 | 2.57 | 0.00 | 89 | 1018.8 |
| 20260510015800 | 8 | 21 | 9.7 | 22.5 | 0.00 | 2.57 | 0.00 | 89 | 1018.9 |
| 20260510015306 | 8 | 39 | 8.0 | 24.1 | 0.00 | 2.57 | 0.00 | 89 | 1018.9 |
| 20260510015132 | 8 | 62 | 11.3 | 24.1 | 0.00 | 2.57 | 0.00 | 89 | 1018.9 |
| 20260510014300 | 8 | 1 | 9.7 | 22.5 | 0.00 | 2.57 | 0.00 | 89 | 1018.9 |
| 20260510013801 | 8 | 41 | 9.7 | 22.5 | 0.00 | 2.57 | 0.00 | 89 | 1018.8 |
| 20260510013302 | 8 | 38 | 6.4 | 22.5 | 0.00 | 2.57 | 0.00 | 89 | 1018.8 |
| 20260510012809 | 8 | 0 | 11.3 | 24.1 | 0.00 | 2.57 | 0.00 | 88 | 1018.8 |
| 20260510012306 | 8 | 42 | 8.0 | 24.1 | 0.00 | 2.57 | 0.00 | 88 | 1018.7 |
| 20260510011803 | 8 | 49 | 6.4 | 20.9 | 0.00 | 2.57 | 0.00 | 88 | 1018.8 |
| 20260510011302 | 8 | 38 | 8.0 | 20.9 | 0.00 | 2.57 | 0.00 | 88 | 1018.9 |
| 20260510010800 | 8 | 28 | 8.0 | 19.3 | 0.00 | 2.57 | 0.00 | 88 | 1018.8 |
| 20260510010300 | 8 | 55 | 6.4 | 19.3 | 0.00 | 2.57 | 0.00 | 88 | 1018.8 |
| 20260510005759 | 8 | 24 | 6.4 | 20.9 | 0.00 | 2.57 | 0.00 | 88 | 1018.7 |
| 20260510005306 | 8 | 62 | 12.9 | 20.9 | 0.00 | 2.57 | 0.00 | 88 | 1018.7 |
| 20260510004804 | 8 | 61 | 8.0 | 22.5 | 0.00 | 2.57 | 0.00 | 88 | 1018.7 |
| 20260510004304 | 8 | 47 | 8.0 | 22.5 | 0.00 | 2.57 | 0.00 | 88 | 1018.8 |
| 20260510003802 | 8 | 56 | 8.0 | 24.1 | 0.00 | 2.57 | 0.00 | 88 | 1018.7 |
| 20260510003301 | 8 | 59 | 9.7 | 24.1 | 0.00 | 2.57 | 0.00 | 87 | 1018.8 |
| 20260510002804 | 8 | 49 | 8.0 | 19.3 | 0.00 | 2.57 | 0.00 | 87 | 1018.9 |
| 20260510002259 | 8 | 52 | 6.4 | 22.5 | 0.00 | 2.57 | 0.00 | 87 | 1018.8 |
| 20260510001758 | 8 | 56 | 8.0 | 22.5 | 0.00 | 2.57 | 0.00 | 87 | 1018.8 |
| 20260510001306 | 8 | 45 | 8.0 | 20.9 | 0.00 | 2.57 | 0.00 | 87 | 1018.8 |
| 20260510001233 | 8 | 34 | 9.7 | 20.9 | 0.00 | 2.57 | 0.00 | 86 | 1018.9 |
| 20260510000653 | 8 | 51 | 9.7 | 19.3 | 0.00 | 2.57 | 0.00 | 86 | 1018.9 |
| 20260510000131 | 9 | 39 | 9.7 | 19.3 | 0.00 | 2.57 | 0.00 | 86 | 1018.9 |
| 20260509235258 | 9 | 45 | 9.7 | 19.3 | 0.00 | 2.57 | 0.00 | 86 | 1018.9 |
| 20260509234758 | 9 | 56 | 6.4 | 17.7 | 0.00 | 2.57 | 0.00 | 85 | 1018.9 |
| 20260509234604 | 9 | 58 | 9.7 | 17.7 | 0.00 | 2.57 | 0.00 | 85 | 1019.0 |
| 20260509233759 | 9 | 59 | 6.4 | 17.7 | 0.00 | 2.57 | 0.00 | 84 | 1018.9 |
| 20260509233522 | 9 | 23 | 6.4 | 16.1 | 0.00 | 2.57 | 0.00 | 83 | 1019.0 |
| 20260509233351 | 9 | 351 | 4.8 | 16.1 | 0.00 | 2.57 | 0.00 | 84 | 1019.0 |
| 20260509232300 | 9 | 52 | 8.0 | 19.3 | 0.00 | 2.57 | 0.00 | 82 | 1019.0 |
| 20260509231759 | 9 | 338 | 8.0 | 19.3 | 0.00 | 2.57 | 0.00 | 81 | 1019.0 |
| 20260509231300 | 9 | 32 | 6.4 | 17.7 | 0.00 | 2.57 | 0.00 | 80 | 1018.9 |
| 20260509230758 | 9 | 38 | 8.0 | 17.7 | 0.00 | 2.57 | 0.00 | 79 | 1018.8 |
| 20260509230258 | 9 | 54 | 4.8 | 17.7 | 0.00 | 2.57 | 0.00 | 77 | 1018.9 |
| 20260509225757 | 10 | 27 | 8.0 | 17.7 | 0.00 | 2.57 | 2.57 | 75 | 1018.7 |
| 20260509225256 | 10 | 0 | 8.0 | 16.1 | 0.00 | 2.57 | 2.57 | 73 | 1018.8 |
| 20260509224756 | 10 | 45 | 6.4 | 11.3 | 0.00 | 2.57 | 2.57 | 71 | 1019.0 |
| 20260509224601 | 10 | 39 | 4.8 | 9.7 | 0.00 | 2.57 | 2.57 | 69 | 1019.1 |
| 20260509223756 | 10 | 47 | 3.2 | 16.1 | 0.00 | 2.57 | 2.57 | 68 | 1019.1 |
| 20260509223301 | 10 | 61 | 6.4 | 16.1 | 0.00 | 2.57 | 2.57 | 68 | 1019.0 |
| 20260509222807 | 10 | 49 | 6.4 | 17.7 | 0.00 | 2.57 | 2.57 | 66 | 1019.1 |
| 20260509222306 | 10 | 68 | 8.0 | 17.7 | 0.00 | 2.57 | 2.57 | 65 | 1019.0 |
| 20260509221755 | 10 | 27 | 8.0 | 14.5 | 0.00 | 2.57 | 2.57 | 65 | 1018.9 |
| 20260509221257 | 10 | 48 | 6.4 | 14.5 | 0.00 | 2.57 | 2.57 | 65 | 1018.8 |
| 20260509221130 | 10 | 45 | 6.4 | 16.1 | 0.00 | 2.57 | 2.57 | 65 | 1018.7 |
| 20260509220255 | 10 | 52 | 4.8 | 16.1 | 0.00 | 2.57 | 2.57 | 65 | 1018.7 |
| 20260509215754 | 11 | 41 | 6.4 | 16.1 | 0.00 | 2.57 | 2.57 | 66 | 1018.5 |
| 20260509215254 | 11 | 59 | 3.2 | 14.5 | 0.00 | 2.57 | 2.57 | 66 | 1018.5 |
| 20260509214754 | 11 | 34 | 3.2 | 14.5 | 0.00 | 2.57 | 2.57 | 66 | 1018.4 |
| 20260509214254 | 11 | 13 | 3.2 | 9.7 | 0.00 | 2.57 | 2.57 | 66 | 1018.4 |
| 20260509213754 | 11 | 69 | 1.6 | 3.2 | 0.00 | 2.57 | 2.57 | 65 | 1018.3 |
| 20260509213254 | 11 | 75 | 1.6 | 3.2 | 0.00 | 2.57 | 2.57 | 65 | 1018.3 |
| 20260509212756 | 11 | 75 | 0.0 | 3.2 | 0.00 | 2.57 | 2.57 | 64 | 1018.4 |
| 20260509212721 | 11 | 75 | 1.6 | 4.8 | 0.00 | 2.57 | 2.57 | 64 | 1018.3 |
| 20260509211754 | 11 | 75 | 1.6 | 4.8 | 0.00 | 2.57 | 2.57 | 65 | 1018.2 |
| 20260509211258 | 11 | 76 | 3.2 | 3.2 | 0.00 | 2.57 | 2.57 | 64 | 1018.1 |
| 20260509210801 | 12 | 76 | 0.0 | 4.8 | 0.00 | 2.57 | 2.57 | 63 | 1018.1 |
| 20260509210255 | 12 | 76 | 1.6 | 4.8 | 0.00 | 2.57 | 2.57 | 63 | 1018.0 |
| 20260509205754 | 12 | 76 | 1.6 | 3.2 | 0.00 | 2.57 | 2.57 | 63 | 1018.1 |
| 20260509205253 | 12 | 76 | 1.6 | 4.8 | 0.00 | 2.57 | 2.57 | 63 | 1017.9 |
| 20260509204752 | 12 | 76 | 1.6 | 6.4 | 0.00 | 2.57 | 2.57 | 63 | 1018.0 |
| 20260509204255 | 12 | 76 | 3.2 | 6.4 | 0.00 | 2.57 | 2.57 | 62 | 1017.9 |
| 20260509203752 | 12 | 76 | 1.6 | 6.4 | 0.00 | 2.57 | 2.57 | 62 | 1017.8 |
| 20260509203611 | 12 | 78 | 3.2 | 4.8 | 0.00 | 2.57 | 2.57 | 62 | 1018.0 |
| 20260509202754 | 13 | 76 | 3.2 | 4.8 | 0.00 | 2.57 | 2.57 | 61 | 1017.9 |
| 20260509202255 | 13 | 76 | 3.2 | 4.8 | 0.00 | 2.57 | 2.57 | 61 | 1017.8 |
| 20260509201753 | 13 | 76 | 3.2 | 6.4 | 0.00 | 2.57 | 2.57 | 60 | 1017.7 |
| 20260509201250 | 13 | 76 | 3.2 | 6.4 | 0.00 | 2.57 | 2.57 | 60 | 1017.7 |
| 20260509200750 | 13 | 76 | 3.2 | 6.4 | 0.00 | 2.57 | 2.57 | 59 | 1017.7 |
| 20260509200253 | 13 | 76 | 1.6 | 4.8 | 0.00 | 2.57 | 2.57 | 59 | 1017.6 |
| 20260509195750 | 14 | 80 | 1.6 | 8.0 | 0.00 | 2.57 | 2.57 | 58 | 1017.6 |
| 20260509195250 | 14 | 80 | 1.6 | 8.0 | 0.00 | 2.57 | 2.57 | 58 | 1017.6 |
| 20260509194751 | 15 | 71 | 3.2 | 6.4 | 0.00 | 2.57 | 2.57 | 57 | 1017.6 |
| 20260509194255 | 15 | 96 | 1.6 | 6.4 | 0.00 | 2.57 | 2.57 | 56 | 1017.5 |
| 20260509193748 | 15 | 96 | 1.6 | 6.4 | 0.00 | 2.57 | 2.57 | 55 | 1017.4 |
| 20260509193246 | 15 | 96 | 1.6 | 6.4 | 0.00 | 2.57 | 2.57 | 54 | 1017.3 |
| 20260509192746 | 16 | 96 | 3.2 | 3.2 | 0.00 | 2.57 | 2.57 | 53 | 1017.2 |
| 20260509192251 | 16 | 94 | 1.6 | 6.4 | 0.00 | 2.57 | 2.57 | 53 | 1017.2 |
| 20260509191748 | 16 | 94 | 3.2 | 6.4 | 0.00 | 2.57 | 2.57 | 52 | 1017.2 |
| 20260509191246 | 16 | 93 | 8.0 | 8.0 | 0.00 | 2.57 | 2.57 | 51 | 1017.2 |
| 20260509190747 | 16 | 93 | 8.0 | 8.0 | 0.00 | 2.57 | 2.57 | 51 | 1017.1 |
| 20260509190245 | 16 | 96 | 3.2 | 4.8 | 0.00 | 2.57 | 2.57 | 51 | 1017.0 |
| 20260509185745 | -17 | 78 | 4.8 | 6.4 | 0.00 | 2.57 | 2.57 | 1017.0 | |
| 20260509185246 | -17 | 75 | 4.8 | 11.3 | 0.00 | 2.57 | 2.57 | 1016.9 | |
| 20260509184746 | -17 | 100 | 9.7 | 11.3 | 0.00 | 2.57 | 2.57 | 1017.0 | |
| 20260509184245 | -17 | 107 | 6.4 | 9.7 | 0.00 | 2.57 | 2.57 | 1016.9 | |
| 20260509183738 | -17 | 120 | 6.4 | 6.4 | 0.00 | 2.57 | 2.57 | 1016.8 | |
| 20260509183239 | 17 | 120 | 6.4 | 14.5 | 0.00 | 2.57 | 2.57 | 50 | 1016.7 |
| 20260509182736 | 17 | 109 | 8.0 | 14.5 | 0.00 | 2.57 | 2.57 | 50 | 1016.7 |
| 20260509182614 | 17 | 121 | 9.7 | 9.7 | 0.00 | 2.57 | 2.57 | 50 | 1016.5 |
| 20260509181737 | 17 | 114 | 3.2 | 3.2 | 0.00 | 2.57 | 2.57 | 50 | 1016.6 |
| 20260509181237 | -17 | 114 | 3.2 | 11.3 | 0.00 | 2.57 | 2.57 | 1016.5 | |
| 20260509180732 | 17 | 106 | 11.3 | 11.3 | 0.00 | 2.57 | 2.57 | 50 | 1016.4 |
| 20260509180232 | 17 | 102 | 0.0 | 0.0 | 0.00 | 2.57 | 2.57 | 50 | 1016.5 |
| 20260509175720 | 18 | 102 | 0.0 | 6.4 | 0.00 | 2.57 | 2.57 | 47 | 1016.4 |
| 20260509175219 | 18 | 79 | 3.2 | 6.4 | 0.00 | 2.57 | 2.57 | 47 | 1016.4 |
| 20260509174719 | 18 | 79 | 1.6 | 16.1 | 0.00 | 2.57 | 2.57 | 47 | 1016.5 |
| 20260509174212 | 18 | 89 | 16.1 | 20.9 | 0.00 | 2.57 | 2.57 | 47 | 1016.5 |
| 20260509173708 | 18 | 68 | 17.7 | 20.9 | 0.00 | 2.57 | 2.57 | 47 | 1016.4 |
| 20260509173204 | 18 | 86 | 6.4 | 14.5 | 0.00 | 2.57 | 2.57 | 47 | 1016.4 |
| 20260509172955 | 19 | 0.0 | 0.0 | 0.00 | 2.57 | 2.57 | 47 | 1016.4 | |
| 20260509172206 | 19 | 99 | 9.7 | 9.7 | 0.00 | 2.57 | 2.57 | 47 | 1016.5 |
| 20260509171705 | 19 | 99 | 9.7 | 9.7 | 0.00 | 2.57 | 2.57 | 47 | 1016.4 |